Regional Weather Roundup
Issued by NWS

Home | Current Version | Previous Version | Graphics & Text | Print | Product List | Glossary On
Versions: 1 2 3 4 5 6 7 8 9 10 11 12 13 14 15 16 17 18 19 20 21 22 23 24 25 26 27 28 29 30 31 32 33 34 35 36 37 38 39 40 41 42 43 44 45 46 47 48 49 50
773
ASUS43 KLOT 220808
RWRIL

ILLINOIS REGIONAL WEATHER ROUNDUP
NATIONAL WEATHER SERVICE CHICAGO/ROMEOVILLE IL
200 AM CST SUN JAN 22 2017

NOTE: "FAIR" INDICATES FEW OR NO CLOUDS BELOW 12,000 FEET WITH NO
SIGNIFICANT WEATHER AND/OR OBSTRUCTIONS TO VISIBILITY.

* THESE STATIONS ARE NOT UNDER NWS QUALITY CONTROL. THEY ALSO MAY NOT
  REPORT WEATHER SUCH AS PRECIPITATION OR FOG.

ILZ001-002-007-009-015-016-024-220900-
NORTHWEST ILLINOIS

CITY           SKY/WX    TMP DP  RH WIND       PRES   REMARKS
MOLINE         CLOUDY    35  32  88 CALM      29.59R FOG
STERLING*      FOG       31  31 100 CALM      29.59S VSB 1/2
SAVANNA*       FOG       32  32 100 CALM      29.58S VSB<1/4
$$

ILZ003-004-008-010-011-017-018-220900-
NORTH CENTRAL ILLINOIS

CITY           SKY/WX    TMP DP  RH WIND       PRES   REMARKS
ROCKFORD       FOG       36  34  92 CALM      29.59R VSB 1/4
FREEPORT*        N/A     36  36 100 W3        29.59S FOG
ROCHELLE*      FOG       34  34 100 SE5       29.59S VSB 1/4 WCI  30
DE KALB*       FOG       35  35  99 S5        29.59S VSB 1/2 WCI  31
$$

ILZ005-006-012>014-019>023-220900-
NORTHEAST ILLINOIS

CITY           SKY/WX    TMP DP  RH WIND       PRES   REMARKS
CHICAGO-OHARE  CLOUDY    40  40 100 CALM      29.58S FOG
CHICAGO-MIDWAY FOG       42  42 100 CALM      29.59F VSB 1/2
AURORA         FOG       36  35  96 CALM      29.58F VSB<1/4
LANSING*       LGT RAIN  38  38 100 NW5       29.60S VSB 1/4 WCI  34
JOLIET*        FOG       42  42 100 CALM      29.59F VSB 3/4
WAUKEGAN       FOG       39  39 100 CALM      29.57S VSB 1/4
DUPAGE AIRPORT FOG       38  37  97 SE3       29.58S VSB 1/4
KANKAKEE*      FOG       38  38  97 CALM      29.59S VSB 1/4
WHEELING       FOG       38  38 100 CALM      29.59S VSB 1/2
MORRIS*        FOG       38  38  98 CALM      29.58F VSB 1/4
ROMEOVILLE*    FOG       40  40 100 NE3       29.59S VSB 1/4
NORTHERLY ISL    N/A     38  37  97 NE2         N/A
$$

LMZ740>746-220900-
SOUTHERN LAKE MICHIGAN

STATION/POSITION SKY/WX   TEMP    WIND        PRES    VSBY  WAVE
                          AIR SEA DIR/SP/G                  HT/PER
                          (F)     (DEG/KT/KT) (MB)    (MI)  (FT/S)
HARRISON CRIB              42     300/  4/  5   N/A
BURNHAM HARBOR             38      90/  2/  8   N/A
CALUMET HARBOR             33      CALM  /  2 1001.8F
BURNS HARBOR               35     360/  9/ 12 1003.0S
MICHIGAN CITY              38     320/ 13/ 13   N/A
$$

ILZ025>027-034>036-040-047-049-050-058-095>099-220900-
WEST-CENTRAL ILLINOIS

CITY           SKY/WX    TMP DP  RH WIND       PRES   REMARKS
QUINCY         CLEAR     40  39  97 NE9       29.54S FOG
GALESBURG*     FOG       31  31 100 CALM      29.58S VSB 1/4
MACOMB*        FOG       35  35 100 NE3       29.59F VSB 1/4
JACKSONVILLE*  CLEAR     44  41  91 N7        29.54S
PITTSFIELD*    CLEAR     44  43  96 N7        29.54F
$$

ILZ028>032-037-038-041>044-048-051>054-059>061-220900-
CENTRAL ILLINOIS

CITY           SKY/WX    TMP DP  RH WIND       PRES   REMARKS
PONTIAC        RAIN      40  40 100 N3        29.59S VSB 1/4
BLOOMINGTON    FOG       38  37  97 N9        29.58S VSB 1/4 WCI  31
DECATUR        CLEAR     41  40  96 NE9       29.53F
PEORIA         FOG       40  40 100 NE6       29.58F VSB 1/4
LACON*         CLOUDY    39  39 100 CALM      29.58F FOG
LINCOLN*       PTCLDY    44  43  97 N8        29.56R
SPRINGFIELD    PTCLDY    44  41  89 N8        29.54F
TAYLORVILLE    CLEAR     49  42  77 NE9       29.52F
$$

ILZ033-039-045-046-055>057-062-063-220900-
EAST-CENTRAL ILLINOIS

CITY           SKY/WX    TMP DP  RH WIND       PRES   REMARKS
CHAMPAIGN      CLEAR     48  43  82 NE8       29.55F
RANTOUL*       CLEAR     45  43  93 NE5       29.56S
MATTOON        FOG       46  45  96 NE6       29.51F VSB 3/4
PARIS*         CLEAR     45  45 100 E3        29.54F
$$

ILZ079-100>102-220900-
SOUTHWEST ILLINOIS

CITY           SKY/WX    TMP DP  RH WIND       PRES   REMARKS
ALTON          PTCLDY    46  43  86 CALM      29.50S
BELLEVILLE     CLEAR     49  49 100 CALM      29.47S FOG
CAHOKIA*       PTCLDY    47  44  90 CALM      29.48F
SPARTA*        PTCLDY    48  47  97 NE3       29.49R
$$

ILZ064>066-069>071-074>076-080>082-084>086-088>090-092>094-220900-
SOUTH-CENTRAL ILLINOIS

CITY           SKY/WX    TMP DP  RH WIND       PRES   REMARKS
CARBONDALE     PTCLDY    47  47 100 CALM      29.47S
CAIRO*         MOCLDY    48  47  98 NE3       29.47S
EFFINGHAM*     CLEAR     50  50 100 N3        29.51F
MARION         MOCLDY    46  45  93 CALM      29.48S
MT. VERNON     CLEAR     44  43  96 NE3       29.49F
CENTRALIA*     CLEAR     49  49  99 E3        29.48F
SALEM*         CLEAR     55  50  85 CALM      29.49F
METROPOLIS*    MOCLDY    52  49  89 CALM      29.49S
$$

ILZ067-068-072-073-078-083-087-091-220900-
SOUTHEAST ILLINOIS

CITY           SKY/WX    TMP DP  RH WIND       PRES   REMARKS
LAWRENCEVILLE  CLEAR     48  47  96 NE7       29.50F
FLORA*         CLEAR     51  49  91 N5        29.50F
FAIRFIELD*     PTCLDY    49  48  95 CALM      29.48S
HARRISBURG*    CLOUDY    46  45  97 CALM      29.49R
ROBINSON*      PTCLDY    46  46  99 NE6       29.52F
CARMI*         PTCLDY    47  46  97 NE3       29.49R
$$

ABBREVIATIONS USED IN REMARKS
   TC - TEMPERATURE IN CELSIUS
  WCI - WIND CHILL INDEX
   HX - HEAT INDEX
  VSB - VISIBILITY
$$





USA.gov is the U.S. government's official web portal to all federal, state and local government web resources and services.